Regional Weather Roundup
Issued by NWS

Home | Current Version | Previous Version | Text Only | Print | Product List | Glossary On
Versions: 1 2 3 4 5 6 7 8 9 10 11 12 13 14 15 16 17 18 19 20 21 22 23 24 25 26 27 28 29 30 31 32 33 34 35 36 37 38 39 40 41 42 43 44 45 46 47 48 49 50
000
ASUS45 KPSR 111510
RWRAZ

ARIZONA HOURLY REGIONAL WEATHER ROUNDUP
NATIONAL WEATHER SERVICE PHOENIX AZ
800 AM MST THU FEB 11 2016

NOTE: FAIR INDICATES FEW OR NO CLOUDS BELOW 12,000 FEET WITH NO
SIGNIFICANT WEATHER AND/OR OBSTRUCTIONS TO VISIBILITY.

AZZ001>003-036-111600-
NORTHWEST ARIZONA

CITY           SKY/WX    TMP DP  RH WIND       PRES   REMARKS
BULLHEAD CITY  CLEAR     55  28  35 N10       30.20S
KINGMAN        PTCLDY    33 N/A N/A E3        30.27R
$$

AZZ004>008-015-016-018-111600-
NORTH CENTRAL ARIZONA

CITY           SKY/WX    TMP DP  RH WIND       PRES   REMARKS
GRAND CANYON   MOCLDY    22  17  81 NE5       30.40R WCI  16
WILLIAMS       PTCLDY    28  18  64 S9        30.44R WCI  20
PRESCOTT       PTCLDY    34  20  56 S7        30.33S WCI  28
FLAGSTAFF      PTCLDY    21  15  78 CALM      30.41R
PAYSON         CLEAR     45  16  31 CALM      30.33R
PAGE           MOCLDY    33  28  81 CALM      30.41R
$$

AZZ009>014-017-111600-
NORTHEAST ARIZONA

CITY           SKY/WX    TMP DP  RH WIND       PRES   REMARKS
WINSLOW        CLOUDY    26  20  77 SE6       30.40R WCI  19
SAINT JOHNS    MOCLDY    25  16  68 CALM      30.39
WINDOW ROCK    CLEAR     23   0  36 CALM      30.41R
SHOW LOW       PTCLDY    25  18  74 CALM      30.40R
$$

AZZ023-111600-
GREATER PHOENIX AREA

CITY           SKY/WX    TMP DP  RH WIND       PRES   REMARKS
PHOENIX        PTCLDY    57  34  41 E5        30.16R
BUCKEYE        CLEAR     46  32  57 W7        30.19R
GLENDALE       CLEAR     50  32  50 CALM      30.19R
DEER VALLEY    CLEAR     54  30  40 N6        30.17R
SCOTTSDALE     CLEAR     54  35  48 CALM      30.18R
MESA-FALCON    CLEAR    N/A N/A N/A N12       30.18
MESA-GATEWAY   PTCLDY    45  34  65 SE5       30.18R
CHANDLER       PTCLDY    48  32  53 CALM      30.18R
$$

AZZ027-028-111600-
SOUTHWEST MARICOPA COUNTY AND PINAL COUNTY

CITY           SKY/WX    TMP DP  RH WIND       PRES   REMARKS
CASA GRANDE    CLEAR     48  27  43 CALM      30.18R
GILA BEND      CLEAR     52  29  41 E5        30.15R
$$

AZZ503-504-507>509-111600-
SOUTHEAST ARIZONA

CITY           SKY/WX    TMP DP  RH WIND       PRES   REMARKS
TUCSON         CLEAR     48  21  34 SE12      30.23R
DAVIS-MONTHAN  CLEAR     50  21  32 S9        30.21R HAZE
RYAN FIELD     CLEAR     46  28  49 SE6       30.23R
NOGALES        CLEAR     40  21  46 CALM      30.26R
DOUGLAS        MOSUNNY   35  17  47 CALM      30.29R
SAFFORD        CLEAR     39  22  50 SE3       30.26R
$$

AZZ020-021-025-026-031-111600-
SOUTHWEST ARIZONA

CITY           SKY/WX    TMP DP  RH WIND       PRES   REMARKS
YUMA           PTCLDY    58  28  32 NE7       30.13R
$$

CAZ031-033-041-043-047-048-061-111600-
SOUTHERN CALIFORNIA

CITY           SKY/WX    TMP DP  RH WIND       PRES   REMARKS
DOWNTOWN L.A.  CLEAR     62  31  31 N3        30.08R
L.A. AIRPORT   CLEAR     64  31  28 CALM      30.08R
SAN DIEGO      PTCLDY    57  35  43 CALM      30.09R
BURBANK        CLEAR     52  31  44 CALM      30.10R
ONTARIO        PTCLDY    54  32  43 N3        30.11R
RIVERSIDE      CLEAR     55  29  36 NE6       30.12R
PALM SPRINGS   CLEAR     57  27  31 NW9       30.15R
EL CENTRO NAS  PTCLDY    50  21  32 W6        30.14R
IMPERIAL       CLEAR     51  25  36 W3        30.12R
BLYTHE         CLEAR     50  24  36 CALM      30.17R
NEEDLES        CLEAR     53  27  36 NW6       30.20R
$$

NVZ020-UTZ003-111600-
SOUTHERN NEVADA-UTAH

CITY           SKY/WX    TMP DP  RH WIND       PRES   REMARKS
LAS VEGAS      PTCLDY    49  26  41 SW3       30.23R
SALT LAKE CITY FOG       28  27  96 SE7       30.47F VSB 1/2 WCI  21
$$

NMZ009-TXZ055-111600-
NEW MEXICO-WEST TEXAS

CITY           SKY/WX    TMP DP  RH WIND       PRES   REMARKS
ALBUQUERQUE    CLOUDY    33  21  61 W3        30.35R
EL PASO        PTSUNNY   44  20  38 CALM      30.26R
$$


........................KEY........................
SKY/WX - SKY CONDITION/WEATHER
TMP    - TEMPERATURE IN FAHRENHEIT
DP     - DEW POINT IN FAHRENHEIT
RH     - RELATIVE HUMIDITY IN PERCENT
WIND   - DIRECTION AND SPEED IN MILES PER HOUR (MPH)
VRB    - VARIABLE WIND DIRECTION
PRES   - MEAN SEA LEVEL PRESSURE IN INCHES OF MERCURY
         F - FALLING PRESSURE   R - RISING PRESSURE
         S - STEADY PRESSURE
VSB    - VISIBILITY IN MILES
HX     - HEAT INDEX IN FAHRENHEIT
WCI    - WIND CHILL INDEX IN FAHRENHEIT
TC     - TEMPERATURE IN CELSIUS WHICH IS ALSO KNOWN AS
         TEMPERATURE IN CENTIGRADE
AFB    - AIR FORCE BASE
         LUKE AFB IS LUKE AIR FORCE BASE
         DAVIS-MONTHAN IS DAVIS-MONTHAN AIR FORCE BASE
NAS    - NAVAL AIR STATION
         EL CENTRO NAS IS EL CENTRO NAVAL AIR STATION
N/A    - NOT AVAILABLE




USA.gov is the U.S. government's official web portal to all federal, state and local government web resources and services.